Location: Chandolas
(44.4033°N, 4.2533°E)
Time: 22:32:09
(UTC+00:00)

H-2A R/B - Pass Details

Date: 15 November 2019
Orbit: 530 x 652 km, 98.3° (Epoch: 09 December)

Event Time Altitude Azimuth Distance (km) Brightness Sun altitude
Rises 04:51:03 0° 3° (N) 2,980 6.0 -19.2°
Reaches altitude 10° 04:53:28 10° 353° (N) 2,069 5.1 -18.7°
Enters shadow 04:56:01 25° 325° (NW) 1,318 3.9 -18.3°
